Flag for U.S.A. Weather past 2 weeks in Orlando, Florida, U.S.A.

Now
87 °F

Sunny.


Feels Like: 95 °F
Forecast: 74 / 87 °F
Wind: No wind

Location: Orlando Executive Airport

Current Time: Jul 22, 2014 at 12:19:46 PM

Latest Report: Jul 22, 2014 at 11:53 AM


Visibility: 10 mi

Pressure: 30.08 "Hg

Humidity: 63%

Dew point: 73 °F

Location of OrlandoLocation

Historic Weather in Orlando — Graph

°F

Orlando temperature yesterday

Maximum temperature yesterday: 93 °F (at 3:53 PM)
Minimum temperature yesterday: 75 °F (at 5:59 PM)
Average temperature yesterday: 81 °F

Past Weeks' High & Low Weather Summary

 TemperatureHumidityPressure
High93 °F (Jul 18, 2:53 PM)100% (Jul 11, 5:53 AM)30.18 "Hg (Jul 11, 5:53 AM)
Low73 °F (Jul 11, 5:53 AM)37% (Jul 18, 4:53 PM)29.91 "Hg (Jul 16, 5:53 PM)
Average81 °F80%30.07 "Hg
* Reported Jul 7 10:53 AM — Jul 22 10:53 AM, Orlando, Weather by CustomWeather, © 2014

Note: Actual official high and low records may vary slightly from our data, if they occured in-between our weather recording intervals... More about our weather records

Advertising

Orlando weather history for previous 24 hours

 ConditionsComfort  
Time TempWeatherWind HumidityBarometerVisibility
10:53 AM
Jul 22
84 °FSunny.5 mph77%30.08 "Hg10 mi
9:53 AM82 °FPassing clouds.No wind82%30.09 "Hg10 mi
8:53 AM80 °FSunny.3 mph85%30.07 "Hg10 mi
7:53 AM77 °FSunny.No wind96%30.07 "Hg10 mi
6:53 AM75 °FClear.No wind96%30.05 "Hg10 mi
5:53 AM75 °FPassing clouds.No wind96%30.04 "Hg10 mi
4:53 AM75 °FClear.6 mph96%30.02 "Hg10 mi
3:53 AM75 °FClear.No wind96%30.02 "Hg10 mi
2:53 AM75 °FClear.6 mph94%30.04 "Hg10 mi
1:53 AM75 °FPassing clouds.3 mph96%30.05 "Hg10 mi
12:53 AM76 °FClear.6 mph94%30.07 "Hg10 mi
11:53 PM
Jul 21
76 °FClear.6 mph94%30.09 "Hg10 mi
10:53 PM76 °FLight rain. Clear.8 mph94%30.06 "Hg10 mi
9:53 PM75 °FLight rain. Passing clouds.No wind96%30.08 "Hg10 mi
8:53 PM75 °FHeavy rain. Fog.3 mph94%30.10 "Hg2 mi
7:53 PM75 °FThunderstorms. Partly sunny.6 mph94%30.08 "Hg7 mi
6:53 PM75 °FThundershowers. Partly sunny.7 mph96%30.06 "Hg8 mi
5:59 PM75 °FStrong thunderstorms. Fog.7 mph94%30.05 "Hg1 mi
4:53 PM91 °FThundershowers. Partly sunny.8 mph52%30.00 "Hg10 mi
3:53 PM93 °FScattered clouds.7 mph49%30.01 "Hg10 mi
2:53 PM91 °FPartly sunny.5 mph49%30.03 "Hg10 mi
1:53 PM91 °FPassing clouds.3 mph56%30.04 "Hg10 mi
12:53 PM88 °FPartly sunny.6 mph59%30.07 "Hg10 mi
Weather by CustomWeather, © 2014

See weather overviewHow to use our weather pages